Weather History for Hot Springs, VA

Change the Weather History Date:

Sunday, November 24, 2013

  Actual Average Record
Temperature  
Mean Temperature 12 °F -  
Max Temperature 17 °F 43 °F 60 °F (1999)
Min Temperature 6 °F 30 °F 6 °F (2013)
Degree Days  
Heating Degree Days 54    
Moisture  
Dew Point 1 °F    
Average Humidity 63    
Maximum Humidity 79    
Minimum Humidity 42    
Precipitation  
Precipitation 0.00 in - - ()
Sea Level Pressure  
Sea Level Pressure 30.23 in    
Wind  
Wind Speed 16 mph (NW)    
Max Wind Speed 24 mph    
Max Gust Speed 41 mph    
Visibility 10 miles    
Events Snow    
Averages and records for this station are not official NWS values.
T = Trace of Precipitation, MM = Missing Value Source: NWS Daily Summary

Daily Weather History Graph

Daily Weather History Graph

Search for Another Location

Airport:

Trip Planner

Search our weather history database for the weather conditions in past years. The results will help you decide how hot, cold, wet, or windy it might be!

Date:

Astronomy

Nov. 24, 2013 Rise Set
Actual Time 7:09 AM EST 5:02 PM EST
Civil Twilight 6:41 AM EST 5:30 PM EST
Nautical Twilight 6:08 AM EST 6:03 PM EST
Astronomical Twilight 5:37 AM EST 6:34 PM EST
Moon 11:23 PM EST (11/24) 11:59 AM EST (11/24)
Length of Visible Light 10h 49m
Length of Day
9h 52m
Waning Gibbous, 61% of the Moon is Illuminated
Nov 24
Waning Gibbous
Nov 25
Last Quarter
Dec 2
New
Dec 9
First Quarter
Dec 17
Full

Hourly Weather History & Observations

Time (EST) Temp. Windchill Dew Point Humidity Pressure Visibility Wind Dir Wind Speed Gust Speed Precip Events Conditions
12:15 AM 15.8 °F 0.3 °F 8.6 °F 73% 30.11 in 10.0 mi NNW 16.1 mph 27.6 mph N/A   Overcast
12:35 AM 15.8 °F -0.2 °F 8.6 °F 73% 30.11 in 7.0 mi NW 17.3 mph 26.5 mph N/A Snow Light Snow
12:55 AM 14.0 °F -2.5 °F 6.8 °F 73% 30.11 in 10.0 mi NW 17.3 mph 31.1 mph N/A   Overcast
1:15 AM 14.0 °F -2.0 °F 5.0 °F 67% 30.11 in 10.0 mi NW 16.1 mph 32.2 mph N/A   Overcast
1:35 AM 12.2 °F -4.8 °F 3.2 °F 67% 30.11 in 10.0 mi NW 17.3 mph 27.6 mph N/A   Overcast
1:55 AM 12.2 °F -4.8 °F 1.4 °F 62% 30.11 in 10.0 mi NW 17.3 mph 33.4 mph N/A   Scattered Clouds
2:15 AM 12.2 °F -4.3 °F 1.4 °F 62% 30.12 in 10.0 mi WNW 16.1 mph 36.8 mph N/A   Scattered Clouds
2:35 AM 10.4 °F -8.2 °F 1.4 °F 67% 30.11 in 10.0 mi WNW 19.6 mph 34.5 mph N/A   Scattered Clouds
2:55 AM 10.4 °F -7.2 °F -0.4 °F 62% 30.12 in 10.0 mi NW 17.3 mph 41.4 mph N/A   Clear
3:15 AM 10.4 °F -7.7 °F 1.4 °F 67% 30.12 in 10.0 mi WNW 18.4 mph 32.2 mph N/A   Scattered Clouds
3:35 AM 10.4 °F -7.2 °F 1.4 °F 67% 30.13 in 10.0 mi WNW 17.3 mph 26.5 mph N/A   Mostly Cloudy
3:55 AM 10.4 °F -8.2 °F 1.4 °F 67% 30.13 in 10.0 mi WNW 19.6 mph 29.9 mph N/A   Mostly Cloudy
4:15 AM 10.4 °F -8.2 °F -0.4 °F 62% 30.13 in 10.0 mi WNW 19.6 mph 34.5 mph N/A   Scattered Clouds
4:35 AM 8.6 °F -10.5 °F -0.4 °F 67% 30.13 in 10.0 mi NW 19.6 mph 34.5 mph N/A   Clear
4:55 AM 8.6 °F -10.5 °F -0.4 °F 67% 30.14 in 10.0 mi WNW 19.6 mph 27.6 mph N/A   Scattered Clouds
5:15 AM 8.6 °F -8.3 °F -0.4 °F 67% 30.15 in 10.0 mi NW 15.0 mph 23.0 mph N/A   Scattered Clouds
5:35 AM 8.6 °F -8.3 °F 1.4 °F 73% 30.16 in 10.0 mi NW 15.0 mph 21.9 mph N/A   Mostly Cloudy
5:55 AM 8.6 °F -10.5 °F 1.4 °F 73% 30.17 in 10.0 mi NW 19.6 mph 31.1 mph N/A   Mostly Cloudy
6:15 AM 8.6 °F -9.5 °F 1.4 °F 73% 30.17 in 10.0 mi NW 17.3 mph 31.1 mph N/A   Mostly Cloudy
6:35 AM 8.6 °F -11.4 °F -0.4 °F 67% 30.17 in 10.0 mi NW 21.9 mph 35.7 mph N/A   Scattered Clouds
6:55 AM 8.6 °F -10.5 °F 1.4 °F 73% 30.18 in 10.0 mi NW 19.6 mph 29.9 mph N/A   Scattered Clouds
7:15 AM 6.8 °F -11.3 °F 1.4 °F 79% 30.18 in 10.0 mi NW 16.1 mph 29.9 mph N/A   Scattered Clouds
7:35 AM 6.8 °F -14.3 °F -0.4 °F 72% 30.17 in 10.0 mi WNW 23.0 mph 36.8 mph N/A   Scattered Clouds
7:55 AM 6.8 °F -14.7 °F -0.4 °F 72% 30.19 in 10.0 mi NW 24.2 mph 32.2 mph N/A   Scattered Clouds
8:15 AM 8.6 °F -12.3 °F -0.4 °F 67% 30.20 in 10.0 mi NW 24.2 mph 40.3 mph N/A   Scattered Clouds
8:35 AM 8.6 °F -11.0 °F -0.4 °F 67% 30.21 in 10.0 mi WNW 20.7 mph 34.5 mph N/A   Clear
8:55 AM 8.6 °F -8.9 °F -0.4 °F 67% 30.22 in 10.0 mi WNW 16.1 mph 29.9 mph N/A   Scattered Clouds
9:15 AM 8.6 °F -9.5 °F -0.4 °F 67% 30.23 in 10.0 mi NW 17.3 mph 33.4 mph N/A   Scattered Clouds
9:35 AM 10.4 °F -9.1 °F -0.4 °F 62% 30.25 in 10.0 mi NW 21.9 mph 31.1 mph N/A   Scattered Clouds
9:55 AM 10.4 °F -5.4 °F -0.4 °F 62% 30.25 in 10.0 mi NW 13.8 mph 28.8 mph N/A   Scattered Clouds
10:15 AM 10.4 °F -7.7 °F -0.4 °F 62% 30.26 in 10.0 mi WNW 18.4 mph 26.5 mph N/A   Clear
10:35 AM 10.4 °F -9.1 °F -0.4 °F 62% 30.27 in 10.0 mi WNW 21.9 mph 31.1 mph N/A   Clear
10:55 AM 10.4 °F -5.4 °F -0.4 °F 62% 30.27 in 10.0 mi WNW 13.8 mph 24.2 mph N/A   Unknown
11:15 AM 12.2 °F -4.3 °F -0.4 °F 57% 30.27 in 10.0 mi WNW 16.1 mph 25.3 mph N/A   Clear
11:35 AM 12.2 °F -5.3 °F -0.4 °F 57% 30.26 in 10.0 mi NW 18.4 mph 27.6 mph N/A   Clear
11:55 AM 14.0 °F -2.5 °F -0.4 °F 53% 30.26 in 10.0 mi NW 17.3 mph 23.0 mph N/A   Clear
12:15 PM 14.0 °F -4.3 °F -2.2 °F 49% 30.25 in 10.0 mi WNW 21.9 mph 29.9 mph N/A   Clear
12:35 PM 14.0 °F -3.0 °F -2.2 °F 49% 30.25 in 10.0 mi NNW 18.4 mph 29.9 mph N/A   Clear
12:55 PM 15.8 °F -0.6 °F -2.2 °F 45% 30.25 in 10.0 mi NW 18.4 mph 24.2 mph N/A   Clear
1:15 PM 15.8 °F 0.9 °F -2.2 °F 45% 30.25 in 10.0 mi NW 15.0 mph 21.9 mph N/A   Clear
1:35 PM 17.6 °F 1.3 °F -2.2 °F 42% 30.24 in 10.0 mi NW 19.6 mph 25.3 mph N/A   Clear
1:55 PM 15.8 °F 0.3 °F -2.2 °F 45% 30.24 in 10.0 mi NW 16.1 mph 28.8 mph N/A   Clear
2:15 PM 15.8 °F 0.3 °F -2.2 °F 45% 30.24 in 10.0 mi NW 16.1 mph 28.8 mph N/A   Clear
2:35 PM 17.6 °F 1.7 °F -2.2 °F 42% 30.24 in 10.0 mi NW 18.4 mph 26.5 mph N/A   Clear
2:55 PM 15.8 °F 0.3 °F -2.2 °F 45% 30.25 in 10.0 mi NW 16.1 mph 25.3 mph N/A   Clear
3:15 PM 15.8 °F 1.4 °F -2.2 °F 45% 30.26 in 10.0 mi NNW 13.8 mph 23.0 mph N/A   Clear
3:35 PM 15.8 °F 0.9 °F -0.4 °F 49% 30.27 in 10.0 mi NW 15.0 mph 21.9 mph N/A   Clear
3:55 PM 15.8 °F 2.7 °F -0.4 °F 49% 30.28 in 10.0 mi WNW 11.5 mph 20.7 mph N/A   Clear
4:15 PM 15.8 °F 5.1 °F -0.4 °F 49% 30.28 in 10.0 mi NW 8.1 mph - N/A   Clear
4:35 PM 15.8 °F 2.1 °F -0.4 °F 49% 30.28 in 10.0 mi NW 12.7 mph 20.7 mph N/A   Clear
4:55 PM 14.0 °F -0.2 °F -0.4 °F 53% 30.29 in 10.0 mi NW 12.7 mph 18.4 mph N/A   Clear
5:15 PM 12.2 °F -1.8 °F -0.4 °F 57% 30.29 in 10.0 mi NW 11.5 mph 20.7 mph N/A   Clear
5:35 PM 12.2 °F -2.5 °F -0.4 °F 57% 30.29 in 10.0 mi NNW 12.7 mph 18.4 mph N/A   Clear
5:55 PM 12.2 °F -1.0 °F -0.4 °F 57% 30.30 in 10.0 mi NW 10.4 mph - N/A   Clear
6:15 PM 12.2 °F -1.0 °F -0.4 °F 57% 30.30 in 10.0 mi NW 10.4 mph 20.7 mph N/A   Clear
6:35 PM 10.4 °F -6.0 °F 1.4 °F 67% 30.30 in 10.0 mi NW 15.0 mph - N/A   Clear
6:55 PM 10.4 °F -4.8 °F 1.4 °F 67% 30.30 in 10.0 mi NW 12.7 mph 19.6 mph N/A   Clear
7:15 PM 10.4 °F -4.1 °F 1.4 °F 67% 30.31 in 10.0 mi NW 11.5 mph 19.6 mph N/A   Clear
7:35 PM 10.4 °F -5.4 °F 1.4 °F 67% 30.31 in 10.0 mi NW 13.8 mph 18.4 mph N/A   Clear
7:55 PM 10.4 °F -1.5 °F 1.4 °F 67% 30.32 in 10.0 mi NW 8.1 mph 17.3 mph N/A   Clear
8:15 PM 10.4 °F -1.5 °F 1.4 °F 67% 30.33 in 10.0 mi NW 8.1 mph 16.1 mph N/A   Clear
8:35 PM 10.4 °F -3.3 °F 1.4 °F 67% 30.32 in 10.0 mi WNW 10.4 mph 17.3 mph N/A   Clear
8:55 PM 8.6 °F -2.6 °F 1.4 °F 73% 30.33 in 10.0 mi NW 6.9 mph - N/A   Clear
9:15 PM 8.6 °F -5.5 °F 1.4 °F 73% 30.33 in 10.0 mi West 10.4 mph - N/A   Clear
9:35 PM 8.6 °F -5.5 °F 1.4 °F 73% 30.33 in 10.0 mi WNW 10.4 mph - N/A   Clear
9:55 PM 8.6 °F -6.3 °F 1.4 °F 73% 30.33 in 10.0 mi WNW 11.5 mph 17.3 mph N/A   Clear
10:15 PM 8.6 °F -8.3 °F 1.4 °F 73% 30.33 in 10.0 mi WNW 15.0 mph - N/A   Clear
10:35 PM 8.6 °F -8.9 °F 1.4 °F 73% 30.33 in 10.0 mi WNW 16.1 mph - N/A   Clear
10:55 PM 8.6 °F -6.3 °F 1.4 °F 73% 30.33 in 10.0 mi NW 11.5 mph - N/A   Clear
11:15 PM 8.6 °F 0.1 °F 1.4 °F 73% 30.33 in 10.0 mi WNW 4.6 mph - N/A   Clear
11:35 PM 8.6 °F -1.3 °F 1.4 °F 73% 30.33 in 10.0 mi WNW 5.8 mph - N/A   Clear
11:55 PM 8.6 °F -4.7 °F 1.4 °F 73% 30.32 in 10.0 mi WNW 9.2 mph - N/A   Clear